COSMOS 1037

Satellite information

Favourite Embed

Satellite Type and Status

PAYLOADIN ORBIT

Key statistics

Satellite COSMOS 1037 at a glance.

Uptime

17242

Days in orbit

Revolutions

≈ 12.5

Per day

Orbit

LEO

Low Earth Orbit

Inclination

74.0

Latest

Satellite identification and parameters

Extended collection of information and parameters for COSMOS 1037.

Object identification

Identified? True

Debris? False

Object name: COSMOS 1037

International designator: 1978-091D

Object number (NORAD): 11046

Object ID (CCSDS): 11046

Country: COMMONWEALTH OF INDEPENDENT STATES (CIS)

Current information (Y/N): Y

RCS size: MEDIUM

Orbital parameters

Period: 115.347 minutes

Inclination: 74.0363 deg

SMA: 7849.299 km

Apoapsis: 1481.603 km

Periapsis: 1460.725 km

RAAN: 287.9589 deg

Eccentricy: 0.00132995

Argument of periapsis: 208.4937 deg

Mean anomaly: 226.1105 deg

Mean motion: 12.48407802 rev/day

Mean motion (dot): -0.00000023 rev/day2

B* drag term: -0.000049236499 1/REarth

Two-line elements (TLE)

Creation date: Dec. 17, 2025, 11:34 a.m.

Reference frame: TEME

Reference center: EARTH

Epoch: Dec. 17, 2025, 7:26 a.m. UTC

TLE line 0: 0 COSMOS 1037

TLE line 1: 1 11046U 78091D 25351.30980424 -.00000023 00000-0 -49236-4 0 9998

TLE line 2: 2 11046 74.0363 287.9589 0013300 208.4937 226.1105 12.48407802151195

Live tracking on map

Real-time ground track for satellite COSMOS 1037.

In-orbit conjunctions

A list of the most updated potential collisions computed for object COSMOS 1037.

Target Orbit TCA Probability of collision Miss distance Type
THORAD DELTA 1 DEB SSO 2025-09-27 19:33:23 0.0001845838 478.0 (m) DEBRIS
THORAD DELTA 1 DEB SSO 2024-07-16 11:42:43 0.0001153854 793.0 (m) DEBRIS

Associated space launch

Military communications satellites

COSMOS 1037 was lifted into orbit during the mission ‘Kosmos-3M | Strela-1M 153-160’, on board a Kosmos-3M space rocket.

The launch took place on Oct. 4, 1978, 3:49 a.m. from 132/1 (132L).

For more information about the launch, click the button.

Launch to space Kosmos-3M | Strela-1M 153-160
Kosmos-3M | Strela-1M 153-160

Agency: N/A

Status: Launch Successful

Launch date: Oct. 4, 1978, 3:49 a.m. UTC

Rocket: Kosmos-3M

Launch pad: 132/1 (132L)

Location: Plesetsk Cosmodrome, Russian Federation

...

Latest news about this satellite

There are no fresh news available about this satellite. Check back as we update our databases every day.


Newsletter sign-up

Weekly statistics, charts and insights to help you stay on top of the space industry.